******** Week 241 almanac for PRN-02 ******** ID: 02 Health: 000 Eccentricity: 0.1623535156E-001 Time of Applicability(s): 319488.0000 Orbital Inclination(rad): 0.9675727630 Rate of Right Ascen(r/s): -0.7783181344E-008 SQRT(A) (m 1/2): 5153.685059 Right Ascen at Week(rad): -0.9628148759E+000 Argument of Perigee(rad): -1.309030145 Mean Anom(rad): -0.2282481021E+001 Af0(s): -0.5254745483E-003 Af1(s/s): 0.3637978807E-011 week: 241 ******** Week 241 almanac for PRN-03 ******** ID: 03 Health: 000 Eccentricity: 0.5072116852E-002 Time of Applicability(s): 319488.0000 Orbital Inclination(rad): 0.9819178802 Rate of Right Ascen(r/s): -0.7840326581E-008 SQRT(A) (m 1/2): 5153.512695 Right Ascen at Week(rad): 0.1684364085E+000 Argument of Perigee(rad): 1.114894315 Mean Anom(rad): 0.2197596007E+000 Af0(s): 0.3814697266E-005 Af1(s/s): 0.2546585165E-010 week: 241 ******** Week 241 almanac for PRN-04 ******** ID: 04 Health: 000 Eccentricity: 0.2714157104E-002 Time of Applicability(s): 319488.0000 Orbital Inclination(rad): 0.9633663001 Rate of Right Ascen(r/s): -0.8057478483E-008 SQRT(A) (m 1/2): 5153.548828 Right Ascen at Week(rad): 0.1248277990E+001 Argument of Perigee(rad): -3.051879495 Mean Anom(rad): -0.3037880048E+001 Af0(s): 0.2202987671E-003 Af1(s/s): 0.1091393642E-010 week: 241 ******** Week 241 almanac for PRN-05 ******** ID: 05 Health: 000 Eccentricity: 0.5868911743E-002 Time of Applicability(s): 319488.0000 Orbital Inclination(rad): 0.9689329726 Rate of Right Ascen(r/s): -0.7943188009E-008 SQRT(A) (m 1/2): 5153.710449 Right Ascen at Week(rad): 0.1195561257E+000 Argument of Perigee(rad): 1.240457908 Mean Anom(rad): -0.2441258519E+001 Af0(s): -0.1516342163E-003 Af1(s/s): 0.0000000000E+000 week: 241 ******** Week 241 almanac for PRN-06 ******** ID: 06 Health: 000 Eccentricity: 0.3010272980E-002 Time of Applicability(s): 319488.0000 Orbital Inclination(rad): 0.9896417132 Rate of Right Ascen(r/s): -0.7566029441E-008 SQRT(A) (m 1/2): 5153.744629 Right Ascen at Week(rad): -0.8686072585E+000 Argument of Perigee(rad): -0.828988160 Mean Anom(rad): 0.1573120517E+001 Af0(s): 0.4987716675E-003 Af1(s/s): -0.1091393642E-010 week: 241 ******** Week 241 almanac for PRN-07 ******** ID: 07 Health: 000 Eccentricity: 0.1765584946E-001 Time of Applicability(s): 319488.0000 Orbital Inclination(rad): 0.9502076211 Rate of Right Ascen(r/s): -0.7817468486E-008 SQRT(A) (m 1/2): 5153.651855 Right Ascen at Week(rad): 0.2262559494E+001 Argument of Perigee(rad): -2.165978251 Mean Anom(rad): 0.6632710470E+000 Af0(s): 0.6675720215E-005 Af1(s/s): -0.1091393642E-010 week: 241 ******** Week 241 almanac for PRN-08 ******** ID: 08 Health: 000 Eccentricity: 0.8944034576E-002 Time of Applicability(s): 319488.0000 Orbital Inclination(rad): 0.9558761595 Rate of Right Ascen(r/s): -0.8263201338E-008 SQRT(A) (m 1/2): 5153.726074 Right Ascen at Week(rad): -0.1958271410E+001 Argument of Perigee(rad): 0.278347106 Mean Anom(rad): -0.2800127257E+001 Af0(s): -0.1535415649E-003 Af1(s/s): 0.0000000000E+000 week: 241 ******** Week 241 almanac for PRN-09 ******** ID: 09 Health: 000 Eccentricity: 0.2972126007E-002 Time of Applicability(s): 319488.0000 Orbital Inclination(rad): 0.9568229133 Rate of Right Ascen(r/s): -0.8148910863E-008 SQRT(A) (m 1/2): 5153.711426 Right Ascen at Week(rad): 0.1190170603E+001 Argument of Perigee(rad): 1.988137222 Mean Anom(rad): -0.2281816271E+001 Af0(s): 0.4768371582E-005 Af1(s/s): 0.1091393642E-010 week: 241 ******** Week 241 almanac for PRN-10 ******** ID: 10 Health: 000 Eccentricity: 0.9117126465E-002 Time of Applicability(s): 319488.0000 Orbital Inclination(rad): 0.9816182746 Rate of Right Ascen(r/s): -0.7794610391E-008 SQRT(A) (m 1/2): 5153.639160 Right Ascen at Week(rad): 0.1658478159E+000 Argument of Perigee(rad): -2.424455886 Mean Anom(rad): -0.7364017834E+000 Af0(s): -0.6198883057E-004 Af1(s/s): 0.0000000000E+000 week: 241 ******** Week 241 almanac for PRN-11 ******** ID: 11 Health: 000 Eccentricity: 0.1283168793E-002 Time of Applicability(s): 319488.0000 Orbital Inclination(rad): 0.9660327901 Rate of Right Ascen(r/s): -0.7806039439E-008 SQRT(A) (m 1/2): 5153.584961 Right Ascen at Week(rad): -0.8313606620E+000 Argument of Perigee(rad): -2.576973124 Mean Anom(rad): 0.2784078507E+001 Af0(s): -0.4711151123E-003 Af1(s/s): -0.1455191523E-010 week: 241 ******** Week 241 almanac for PRN-12 ******** ID: 12 Health: 000 Eccentricity: 0.8740901947E-002 Time of Applicability(s): 319488.0000 Orbital Inclination(rad): 0.9642651170 Rate of Right Ascen(r/s): -0.8034620388E-008 SQRT(A) (m 1/2): 5153.704102 Right Ascen at Week(rad): -0.2905799658E+001 Argument of Perigee(rad): 1.396427727 Mean Anom(rad): -0.7555679296E-002 Af0(s): -0.4501342773E-003 Af1(s/s): -0.3637978807E-011 week: 241 ******** Week 241 almanac for PRN-13 ******** ID: 13 Health: 000 Eccentricity: 0.7699012756E-002 Time of Applicability(s): 319488.0000 Orbital Inclination(rad): 0.9701134187 Rate of Right Ascen(r/s): -0.7943188009E-008 SQRT(A) (m 1/2): 5153.608398 Right Ascen at Week(rad): 0.1353292382E+001 Argument of Perigee(rad): 0.954946858 Mean Anom(rad): -0.3119783237E+001 Af0(s): 0.5979537964E-003 Af1(s/s): 0.3637978807E-011 week: 241 ******** Week 241 almanac for PRN-14 ******** ID: 14 Health: 000 Eccentricity: 0.3704071045E-002 Time of Applicability(s): 319488.0000 Orbital Inclination(rad): 0.9476070443 Rate of Right Ascen(r/s): -0.8183198006E-008 SQRT(A) (m 1/2): 5153.623047 Right Ascen at Week(rad): -0.2947276686E+001 Argument of Perigee(rad): -2.953333214 Mean Anom(rad): -0.5472521402E-001 Af0(s): 0.2508163452E-003 Af1(s/s): 0.1091393642E-010 week: 241 ******** Week 241 almanac for PRN-15 ******** ID: 15 Health: 000 Eccentricity: 0.1545429230E-001 Time of Applicability(s): 319488.0000 Orbital Inclination(rad): 0.9334776432 Rate of Right Ascen(r/s): -0.8423208003E-008 SQRT(A) (m 1/2): 5153.505859 Right Ascen at Week(rad): 0.1067083250E+001 Argument of Perigee(rad): 1.275196806 Mean Anom(rad): 0.2476087672E+001 Af0(s): 0.1001358032E-003 Af1(s/s): 0.3637978807E-011 week: 241 ******** Week 241 almanac for PRN-16 ******** ID: 16 Health: 000 Eccentricity: 0.1368093491E-001 Time of Applicability(s): 319488.0000 Orbital Inclination(rad): 0.9638516612 Rate of Right Ascen(r/s): -0.8023191341E-008 SQRT(A) (m 1/2): 5153.639160 Right Ascen at Week(rad): -0.2887733439E+001 Argument of Perigee(rad): 0.803224698 Mean Anom(rad): -0.1770698067E+001 Af0(s): -0.4177093506E-003 Af1(s/s): 0.7275957614E-011 week: 241 ******** Week 241 almanac for PRN-17 ******** ID: 17 Health: 000 Eccentricity: 0.1384019852E-001 Time of Applicability(s): 319488.0000 Orbital Inclination(rad): 0.9715215651 Rate of Right Ascen(r/s): -0.8068907531E-008 SQRT(A) (m 1/2): 5153.568359 Right Ascen at Week(rad): -0.1866417944E+001 Argument of Perigee(rad): -1.372535302 Mean Anom(rad): -0.2732164717E+001 Af0(s): 0.7228851318E-003 Af1(s/s): 0.0000000000E+000 week: 241 ******** Week 241 almanac for PRN-18 ******** ID: 18 Health: 000 Eccentricity: 0.3838062286E-002 Time of Applicability(s): 319488.0000 Orbital Inclination(rad): 0.9744037712 Rate of Right Ascen(r/s): -0.7703178011E-008 SQRT(A) (m 1/2): 5153.604980 Right Ascen at Week(rad): -0.8618732476E+000 Argument of Perigee(rad): -3.037876303 Mean Anom(rad): 0.1452000450E+001 Af0(s): -0.4863739014E-003 Af1(s/s): -0.1091393642E-010 week: 241 ******** Week 241 almanac for PRN-19 ******** ID: 19 Health: 000 Eccentricity: 0.9351253510E-002 Time of Applicability(s): 319488.0000 Orbital Inclination(rad): 0.9706347325 Rate of Right Ascen(r/s): -0.8068907531E-008 SQRT(A) (m 1/2): 5153.613281 Right Ascen at Week(rad): -0.1821965832E+001 Argument of Perigee(rad): 2.450340689 Mean Anom(rad): -0.6811410243E+000 Af0(s): 0.4024505615E-003 Af1(s/s): 0.3637978807E-011 week: 241 ******** Week 241 almanac for PRN-20 ******** ID: 20 Health: 000 Eccentricity: 0.4092216492E-002 Time of Applicability(s): 319488.0000 Orbital Inclination(rad): 0.9514659648 Rate of Right Ascen(r/s): -0.8057478483E-008 SQRT(A) (m 1/2): 5153.605957 Right Ascen at Week(rad): -0.5958032313E-002 Argument of Perigee(rad): -2.760422022 Mean Anom(rad): 0.2168336896E+001 Af0(s): 0.4005432129E-003 Af1(s/s): -0.3637978807E-011 week: 241 ******** Week 241 almanac for PRN-21 ******** ID: 21 Health: 000 Eccentricity: 0.2492856979E-001 Time of Applicability(s): 319488.0000 Orbital Inclination(rad): 0.9618502956 Rate of Right Ascen(r/s): -0.7817468486E-008 SQRT(A) (m 1/2): 5153.707520 Right Ascen at Week(rad): -0.9688964956E+000 Argument of Perigee(rad): -0.680302129 Mean Anom(rad): -0.2760974420E+001 Af0(s): 0.1440048218E-003 Af1(s/s): 0.0000000000E+000 week: 241 ******** Week 241 almanac for PRN-22 ******** ID: 22 Health: 000 Eccentricity: 0.1498270035E-001 Time of Applicability(s): 319488.0000 Orbital Inclination(rad): 0.9631266156 Rate of Right Ascen(r/s): -0.8023191341E-008 SQRT(A) (m 1/2): 5153.675293 Right Ascen at Week(rad): -0.2884434032E+001 Argument of Perigee(rad): -1.163204973 Mean Anom(rad): -0.2189683797E+001 Af0(s): 0.7915496826E-004 Af1(s/s): -0.7275957614E-011 week: 241 ******** Week 241 almanac for PRN-23 ******** ID: 23 Health: 000 Eccentricity: 0.3879547119E-002 Time of Applicability(s): 319488.0000 Orbital Inclination(rad): 0.9767706556 Rate of Right Ascen(r/s): -0.7863184676E-008 SQRT(A) (m 1/2): 5153.645020 Right Ascen at Week(rad): 0.1377781397E+000 Argument of Perigee(rad): -3.035452119 Mean Anom(rad): 0.4452817410E+000 Af0(s): 0.1029968262E-003 Af1(s/s): 0.7275957614E-011 week: 241 ******** Week 241 almanac for PRN-24 ******** ID: 24 Health: 000 Eccentricity: 0.1489257812E-001 Time of Applicability(s): 319488.0000 Orbital Inclination(rad): 0.9337712567 Rate of Right Ascen(r/s): -0.8000333246E-008 SQRT(A) (m 1/2): 5153.574219 Right Ascen at Week(rad): 0.2168773197E+001 Argument of Perigee(rad): 0.945613019 Mean Anom(rad): 0.1702861362E+001 Af0(s): -0.3776550293E-003 Af1(s/s): -0.7275957614E-011 week: 241 ******** Week 241 almanac for PRN-25 ******** ID: 25 Health: 000 Eccentricity: 0.1147603989E-001 Time of Applicability(s): 319488.0000 Orbital Inclination(rad): 0.9520951366 Rate of Right Ascen(r/s): -0.8126052768E-008 SQRT(A) (m 1/2): 5153.596191 Right Ascen at Week(rad): -0.2990168227E+001 Argument of Perigee(rad): 1.057306744 Mean Anom(rad): -0.1780046886E+000 Af0(s): 0.4787445068E-003 Af1(s/s): 0.0000000000E+000 week: 241 ******** Week 241 almanac for PRN-26 ******** ID: 26 Health: 000 Eccentricity: 0.8564949036E-002 Time of Applicability(s): 319488.0000 Orbital Inclination(rad): 0.9328664477 Rate of Right Ascen(r/s): -0.8263201338E-008 SQRT(A) (m 1/2): 5153.729980 Right Ascen at Week(rad): -0.3049145968E+001 Argument of Perigee(rad): 0.497694000 Mean Anom(rad): -0.9766506636E+000 Af0(s): 0.2145767212E-003 Af1(s/s): -0.3637978807E-011 week: 241 ******** Week 241 almanac for PRN-27 ******** ID: 27 Health: 000 Eccentricity: 0.1185369492E-001 Time of Applicability(s): 319488.0000 Orbital Inclination(rad): 0.9648163913 Rate of Right Ascen(r/s): -0.8148910863E-008 SQRT(A) (m 1/2): 5153.615723 Right Ascen at Week(rad): -0.1933396653E+001 Argument of Perigee(rad): 0.741339659 Mean Anom(rad): -0.2672809848E+001 Af0(s): -0.7343292236E-004 Af1(s/s): -0.3637978807E-011 week: 241 ******** Week 241 almanac for PRN-28 ******** ID: 28 Health: 000 Eccentricity: 0.7863044739E-003 Time of Applicability(s): 319488.0000 Orbital Inclination(rad): 0.9613169976 Rate of Right Ascen(r/s): -0.7726036106E-008 SQRT(A) (m 1/2): 5153.742676 Right Ascen at Week(rad): 0.2227304151E+001 Argument of Perigee(rad): 1.565001205 Mean Anom(rad): -0.7208915748E+000 Af0(s): -0.5245208740E-004 Af1(s/s): -0.7275957614E-011 week: 241 ******** Week 241 almanac for PRN-29 ******** ID: 29 Health: 000 Eccentricity: 0.2509593964E-002 Time of Applicability(s): 319488.0000 Orbital Inclination(rad): 0.9738524969 Rate of Right Ascen(r/s): -0.8080336578E-008 SQRT(A) (m 1/2): 5153.631348 Right Ascen at Week(rad): -0.1851872840E+001 Argument of Perigee(rad): 2.571473863 Mean Anom(rad): -0.2850232178E+001 Af0(s): -0.6103515625E-003 Af1(s/s): 0.0000000000E+000 week: 241 ******** Week 241 almanac for PRN-30 ******** ID: 30 Health: 000 Eccentricity: 0.6601333618E-002 Time of Applicability(s): 319488.0000 Orbital Inclination(rad): 0.9353411901 Rate of Right Ascen(r/s): -0.7977475151E-008 SQRT(A) (m 1/2): 5153.680664 Right Ascen at Week(rad): 0.2265979118E+001 Argument of Perigee(rad): -2.554202348 Mean Anom(rad): 0.5740938079E+000 Af0(s): -0.4653930664E-003 Af1(s/s): 0.3637978807E-011 week: 241 ******** Week 241 almanac for PRN-31 ******** ID: 31 Health: 000 Eccentricity: 0.1061630249E-001 Time of Applicability(s): 319488.0000 Orbital Inclination(rad): 0.9542642813 Rate of Right Ascen(r/s): -0.7783181344E-008 SQRT(A) (m 1/2): 5153.604004 Right Ascen at Week(rad): 0.2283282840E+001 Argument of Perigee(rad): 0.627820586 Mean Anom(rad): -0.1851034693E+000 Af0(s): -0.2260208130E-003 Af1(s/s): 0.0000000000E+000 week: 241 ******** Week 241 almanac for PRN-32 ******** ID: 32 Health: 000 Eccentricity: 0.7155895233E-002 Time of Applicability(s): 319488.0000 Orbital Inclination(rad): 0.9603402833 Rate of Right Ascen(r/s): -0.8080336578E-008 SQRT(A) (m 1/2): 5153.541992 Right Ascen at Week(rad): 0.1204071929E+001 Argument of Perigee(rad): -2.222073786 Mean Anom(rad): -0.2033311009E+001 Af0(s): -0.5884170532E-003 Af1(s/s): -0.3637978807E-011 week: 241